Year,Month,Day,Hour,Minute,Value (Times are PST for barometer in hPa)
2015,12,13,00,00,982.59
2015,12,13,00,01,982.56
2015,12,13,00,02,982.54
2015,12,13,00,03,982.59
2015,12,13,00,04,982.63
2015,12,13,00,05,982.63
2015,12,13,00,06,982.60
2015,12,13,00,07,982.66
2015,12,13,00,08,982.70
2015,12,13,00,09,982.73
2015,12,13,00,10,982.72
2015,12,13,00,11,982.67
2015,12,13,00,12,982.73
2015,12,13,00,13,982.70
2015,12,13,00,14,982.73
2015,12,13,00,15,982.70
2015,12,13,00,16,982.70
2015,12,13,00,17,982.70
2015,12,13,00,18,982.73
2015,12,13,00,19,982.76
2015,12,13,00,20,982.76
2015,12,13,00,21,982.76
2015,12,13,00,22,982.80
2015,12,13,00,23,982.76
2015,12,13,00,24,982.76
2015,12,13,00,25,982.81
2015,12,13,00,26,982.87
2015,12,13,00,27,982.87
2015,12,13,00,28,982.83
2015,12,13,00,29,982.83
2015,12,13,00,30,982.87
2015,12,13,00,31,982.87
2015,12,13,00,32,982.90
2015,12,13,00,33,982.88
2015,12,13,00,34,982.97
2015,12,13,00,35,982.93
2015,12,13,00,36,982.97
2015,12,13,00,37,982.88
2015,12,13,00,38,982.97
2015,12,13,00,39,982.91
2015,12,13,00,40,983.00
2015,12,13,00,41,983.00
2015,12,13,00,42,982.97
2015,12,13,00,43,983.00
2015,12,13,00,44,983.04
2015,12,13,00,45,983.04
2015,12,13,00,46,983.05
2015,12,13,00,47,983.10
2015,12,13,00,48,983.14
2015,12,13,00,49,983.14
2015,12,13,00,50,983.15
2015,12,13,00,51,983.20
2015,12,13,00,52,983.15
2015,12,13,00,53,983.20
2015,12,13,00,54,983.20
2015,12,13,00,55,983.21
2015,12,13,00,56,983.30
2015,12,13,00,57,983.24
2015,12,13,00,58,983.24
2015,12,13,00,59,983.27
2015,12,13,01,00,983.27
2015,12,13,01,01,983.24
2015,12,13,01,02,983.27
2015,12,13,01,03,983.24
2015,12,13,01,04,983.24
2015,12,13,01,05,983.24
2015,12,13,01,06,983.27
2015,12,13,01,07,983.24
2015,12,13,01,08,983.31
2015,12,13,01,09,983.35
2015,12,13,01,10,983.41
2015,12,13,01,11,983.37
2015,12,13,01,12,983.37
2015,12,13,01,13,983.41
2015,12,13,01,14,983.41
2015,12,13,01,15,983.42
2015,12,13,01,16,983.54
2015,12,13,01,17,983.58
2015,12,13,01,18,983.58
2015,12,13,01,19,983.59
2015,12,13,01,20,983.64
2015,12,13,01,21,983.68
2015,12,13,01,22,983.64
2015,12,13,01,23,983.71
2015,12,13,01,24,983.68
2015,12,13,01,25,983.71
2015,12,13,01,26,983.71
2015,12,13,01,27,983.71
2015,12,13,01,28,983.75
2015,12,13,01,29,983.78
2015,12,13,01,30,983.71
2015,12,13,01,31,983.75
2015,12,13,01,32,983.78
2015,12,13,01,33,983.81
2015,12,13,01,34,983.85
2015,12,13,01,35,983.86
2015,12,13,01,36,983.92
2015,12,13,01,37,983.88
2015,12,13,01,38,983.92
2015,12,13,01,39,983.92
2015,12,13,01,40,983.93
2015,12,13,01,41,983.98
2015,12,13,01,42,984.02
2015,12,13,01,43,984.05
2015,12,13,01,44,984.05
2015,12,13,01,45,984.08
2015,12,13,01,46,984.15
2015,12,13,01,47,984.19
2015,12,13,01,48,984.19
2015,12,13,01,49,984.19
2015,12,13,01,50,984.22
2015,12,13,01,51,984.22
2015,12,13,01,52,984.23
2015,12,13,01,53,984.29
2015,12,13,01,54,984.29
2015,12,13,01,55,984.32
2015,12,13,01,56,984.36
2015,12,13,01,57,984.39
2015,12,13,01,58,984.46
2015,12,13,01,59,984.43
2015,12,13,02,00,984.53
2015,12,13,02,01,984.53
2015,12,13,02,02,984.56
2015,12,13,02,03,984.59
2015,12,13,02,04,984.59
2015,12,13,02,05,984.63
2015,12,13,02,06,984.66
2015,12,13,02,07,984.69
2015,12,13,02,08,984.69
2015,12,13,02,09,984.73
2015,12,13,02,10,984.77
2015,12,13,02,11,984.86
2015,12,13,02,12,984.86
2015,12,13,02,13,984.90
2015,12,13,02,14,984.93
2015,12,13,02,15,984.97
2015,12,13,02,16,984.97
2015,12,13,02,17,985.01
2015,12,13,02,18,985.07
2015,12,13,02,19,985.08
2015,12,13,02,20,985.13
2015,12,13,02,21,985.14
2015,12,13,02,22,985.20
2015,12,13,02,23,985.20
2015,12,13,02,24,985.24
2015,12,13,02,25,985.27
2015,12,13,02,26,985.27
2015,12,13,02,27,985.27
2015,12,13,02,28,985.27
2015,12,13,02,29,985.27
2015,12,13,02,30,985.27
2015,12,13,02,31,985.30
2015,12,13,02,32,985.37
2015,12,13,02,33,985.41
2015,12,13,02,34,985.44
2015,12,13,02,35,985.44
2015,12,13,02,36,985.47
2015,12,13,02,37,985.47
2015,12,13,02,38,985.51
2015,12,13,02,39,985.52
2015,12,13,02,40,985.57
2015,12,13,02,41,985.55
2015,12,13,02,42,985.61
2015,12,13,02,43,985.57
2015,12,13,02,44,985.61
2015,12,13,02,45,985.64
2015,12,13,02,46,985.64
2015,12,13,02,47,985.64
2015,12,13,02,48,985.64
2015,12,13,02,49,985.69
2015,12,13,02,50,985.74
2015,12,13,02,51,985.78
2015,12,13,02,52,985.81
2015,12,13,02,53,985.85
2015,12,13,02,54,985.85
2015,12,13,02,55,985.88
2015,12,13,02,56,985.91
2015,12,13,02,57,985.98
2015,12,13,02,58,985.99
2015,12,13,02,59,986.08
2015,12,13,03,00,986.12
2015,12,13,03,01,986.05
2015,12,13,03,02,986.12
2015,12,13,03,03,986.12
2015,12,13,03,04,986.12
2015,12,13,03,05,986.15
2015,12,13,03,06,986.15
2015,12,13,03,07,986.18
2015,12,13,03,08,986.18
2015,12,13,03,09,986.18
2015,12,13,03,10,986.22
2015,12,13,03,11,986.25
2015,12,13,03,12,986.22
2015,12,13,03,13,986.29
2015,12,13,03,14,986.29
2015,12,13,03,15,986.29
2015,12,13,03,16,986.32
2015,12,13,03,17,986.35
2015,12,13,03,18,986.36
2015,12,13,03,19,986.45
2015,12,13,03,20,986.40
2015,12,13,03,21,986.46
2015,12,13,03,22,986.46
2015,12,13,03,23,986.46
2015,12,13,03,24,986.49
2015,12,13,03,25,986.52
2015,12,13,03,26,986.53
2015,12,13,03,27,986.59
2015,12,13,03,28,986.62
2015,12,13,03,29,986.62
2015,12,13,03,30,986.62
2015,12,13,03,31,986.66
2015,12,13,03,32,986.66
2015,12,13,03,33,986.69
2015,12,13,03,34,986.73
2015,12,13,03,35,986.74
2015,12,13,03,36,986.79
2015,12,13,03,37,986.79
2015,12,13,03,38,986.79
2015,12,13,03,39,986.76
2015,12,13,03,40,986.83
2015,12,13,03,41,986.83
2015,12,13,03,42,986.86
2015,12,13,03,43,986.90
2015,12,13,03,44,986.96
2015,12,13,03,45,986.96
2015,12,13,03,46,987.00
2015,12,13,03,47,987.03
2015,12,13,03,48,987.06
2015,12,13,03,49,987.10
2015,12,13,03,50,987.13
2015,12,13,03,51,987.13
2015,12,13,03,52,987.18
2015,12,13,03,53,987.23
2015,12,13,03,54,987.28
2015,12,13,03,55,987.34
2015,12,13,03,56,987.34
2015,12,13,03,57,987.34
2015,12,13,03,58,987.37
2015,12,13,03,59,987.37
2015,12,13,04,00,987.40
2015,12,13,04,01,987.47
2015,12,13,04,02,987.48
2015,12,13,04,03,987.57
2015,12,13,04,04,987.54
2015,12,13,04,05,987.54
2015,12,13,04,06,987.54
2015,12,13,04,07,987.57
2015,12,13,04,08,987.61
2015,12,13,04,09,987.62
2015,12,13,04,10,987.71
2015,12,13,04,11,987.64
2015,12,13,04,12,987.64
2015,12,13,04,13,987.67
2015,12,13,04,14,987.67
2015,12,13,04,15,987.71
2015,12,13,04,16,987.74
2015,12,13,04,17,987.81
2015,12,13,04,18,987.84
2015,12,13,04,19,987.84
2015,12,13,04,20,987.88
2015,12,13,04,21,987.91
2015,12,13,04,22,987.98
2015,12,13,04,23,988.01
2015,12,13,04,24,988.05
2015,12,13,04,25,988.08
2015,12,13,04,26,988.06
2015,12,13,04,27,988.15
2015,12,13,04,28,988.16
2015,12,13,04,29,988.22
2015,12,13,04,30,988.22
2015,12,13,04,31,988.25
2015,12,13,04,32,988.25
2015,12,13,04,33,988.26
2015,12,13,04,34,988.32
2015,12,13,04,35,988.35
2015,12,13,04,36,988.35
2015,12,13,04,37,988.39
2015,12,13,04,38,988.42
2015,12,13,04,39,988.45
2015,12,13,04,40,988.45
2015,12,13,04,41,988.49
2015,12,13,04,42,988.45
2015,12,13,04,43,988.49
2015,12,13,04,44,988.52
2015,12,13,04,45,988.52
2015,12,13,04,46,988.55
2015,12,13,04,47,988.55
2015,12,13,04,48,988.59
2015,12,13,04,49,988.59
2015,12,13,04,50,988.62
2015,12,13,04,51,988.62
2015,12,13,04,52,988.66
2015,12,13,04,53,988.69
2015,12,13,04,54,988.69
2015,12,13,04,55,988.69
2015,12,13,04,56,988.72
2015,12,13,04,57,988.72
2015,12,13,04,58,988.76
2015,12,13,04,59,988.76
2015,12,13,05,00,988.79
2015,12,13,05,01,988.83
2015,12,13,05,02,988.83
2015,12,13,05,03,988.86
2015,12,13,05,04,988.86
2015,12,13,05,05,988.89
2015,12,13,05,06,988.96
2015,12,13,05,07,988.93
2015,12,13,05,08,988.96
2015,12,13,05,09,989.03
2015,12,13,05,10,989.03
2015,12,13,05,11,989.03
2015,12,13,05,12,989.10
2015,12,13,05,13,989.13
2015,12,13,05,14,989.16
2015,12,13,05,15,989.17
2015,12,13,05,16,989.27
2015,12,13,05,17,989.23
2015,12,13,05,18,989.23
2015,12,13,05,19,989.27
2015,12,13,05,20,989.27
2015,12,13,05,21,989.27
2015,12,13,05,22,989.30
2015,12,13,05,23,989.30
2015,12,13,05,24,989.33
2015,12,13,05,25,989.40
2015,12,13,05,26,989.40
2015,12,13,05,27,989.40
2015,12,13,05,28,989.40
2015,12,13,05,29,989.44
2015,12,13,05,30,989.47
2015,12,13,05,31,989.50
2015,12,13,05,32,989.50
2015,12,13,05,33,989.54
2015,12,13,05,34,989.54
2015,12,13,05,35,989.57
2015,12,13,05,36,989.60
2015,12,13,05,37,989.60
2015,12,13,05,38,989.64
2015,12,13,05,39,989.64
2015,12,13,05,40,989.67
2015,12,13,05,41,989.71
2015,12,13,05,42,989.74
2015,12,13,05,43,989.74
2015,12,13,05,44,989.77
2015,12,13,05,45,989.81
2015,12,13,05,46,989.81
2015,12,13,05,47,989.84
2015,12,13,05,48,989.88
2015,12,13,05,49,989.89
2015,12,13,05,50,989.94
2015,12,13,05,51,989.91
2015,12,13,05,52,989.91
2015,12,13,05,53,989.94
2015,12,13,05,54,989.94
2015,12,13,05,55,990.01
2015,12,13,05,56,990.01
2015,12,13,05,57,990.04
2015,12,13,05,58,990.11
2015,12,13,05,59,990.11
2015,12,13,06,00,990.11
2015,12,13,06,01,990.11
2015,12,13,06,02,990.15
2015,12,13,06,03,990.15
2015,12,13,06,04,990.21
2015,12,13,06,05,990.18
2015,12,13,06,06,990.21
2015,12,13,06,07,990.21
2015,12,13,06,08,990.25
2015,12,13,06,09,990.28
2015,12,13,06,10,990.28
2015,12,13,06,11,990.28
2015,12,13,06,12,990.28
2015,12,13,06,13,990.32
2015,12,13,06,14,990.35
2015,12,13,06,15,990.35
2015,12,13,06,16,990.38
2015,12,13,06,17,990.42
2015,12,13,06,18,990.42
2015,12,13,06,19,990.38
2015,12,13,06,20,990.45
2015,12,13,06,21,990.49
2015,12,13,06,22,990.50
2015,12,13,06,23,990.55
2015,12,13,06,24,990.55
2015,12,13,06,25,990.59
2015,12,13,06,26,990.59
2015,12,13,06,27,990.62
2015,12,13,06,28,990.65
2015,12,13,06,29,990.65
2015,12,13,06,30,990.69
2015,12,13,06,31,990.72
2015,12,13,06,32,990.73
2015,12,13,06,33,990.79
2015,12,13,06,34,990.82
2015,12,13,06,35,990.82
2015,12,13,06,36,990.86
2015,12,13,06,37,990.86
2015,12,13,06,38,990.89
2015,12,13,06,39,990.86
2015,12,13,06,40,990.89
2015,12,13,06,41,990.89
2015,12,13,06,42,990.89
2015,12,13,06,43,990.96
2015,12,13,06,44,990.96
2015,12,13,06,45,990.96
2015,12,13,06,46,990.99
2015,12,13,06,47,991.06
2015,12,13,06,48,991.06
2015,12,13,06,49,991.09
2015,12,13,06,50,991.09
2015,12,13,06,51,991.09
2015,12,13,06,52,991.09
2015,12,13,06,53,991.16
2015,12,13,06,54,991.16
2015,12,13,06,55,991.20
2015,12,13,06,56,991.23
2015,12,13,06,57,991.23
2015,12,13,06,58,991.26
2015,12,13,06,59,991.26
2015,12,13,07,00,991.33
2015,12,13,07,01,991.37
2015,12,13,07,02,991.37
2015,12,13,07,03,991.40
2015,12,13,07,04,991.40
2015,12,13,07,05,991.40
2015,12,13,07,06,991.43
2015,12,13,07,07,991.50
2015,12,13,07,08,991.50
2015,12,13,07,09,991.50
2015,12,13,07,10,991.53
2015,12,13,07,11,991.57
2015,12,13,07,12,991.60
2015,12,13,07,13,991.60
2015,12,13,07,14,991.60
2015,12,13,07,15,991.67
2015,12,13,07,16,991.67
2015,12,13,07,17,991.70
2015,12,13,07,18,991.74
2015,12,13,07,19,991.74
2015,12,13,07,20,991.77
2015,12,13,07,21,991.77
2015,12,13,07,22,991.81
2015,12,13,07,23,991.84
2015,12,13,07,24,991.84
2015,12,13,07,25,991.87
2015,12,13,07,26,991.94
2015,12,13,07,27,991.91
2015,12,13,07,28,991.94
2015,12,13,07,29,991.94
2015,12,13,07,30,991.98
2015,12,13,07,31,991.98
2015,12,13,07,32,992.01
2015,12,13,07,33,992.04
2015,12,13,07,34,992.04
2015,12,13,07,35,992.04
2015,12,13,07,36,992.08
2015,12,13,07,37,992.11
2015,12,13,07,38,992.11
2015,12,13,07,39,992.12
2015,12,13,07,40,992.18
2015,12,13,07,41,992.18
2015,12,13,07,42,992.14
2015,12,13,07,43,992.21
2015,12,13,07,44,992.25
2015,12,13,07,45,992.28
2015,12,13,07,46,992.26
2015,12,13,07,47,992.31
2015,12,13,07,48,992.29
2015,12,13,07,49,992.35
2015,12,13,07,50,992.42
2015,12,13,07,51,992.38
2015,12,13,07,52,992.42
2015,12,13,07,53,992.42
2015,12,13,07,54,992.45
2015,12,13,07,55,992.45
2015,12,13,07,56,992.52
2015,12,13,07,57,992.55
2015,12,13,07,58,992.58
2015,12,13,07,59,992.58
2015,12,13,08,00,992.62
2015,12,13,08,01,992.69
2015,12,13,08,02,992.69
2015,12,13,08,03,992.69
2015,12,13,08,04,992.75
2015,12,13,08,05,992.75
2015,12,13,08,06,992.79
2015,12,13,08,07,992.79
2015,12,13,08,08,992.89
2015,12,13,08,09,992.89
2015,12,13,08,10,992.92
2015,12,13,08,11,992.92
2015,12,13,08,12,992.96
2015,12,13,08,13,992.99
2015,12,13,08,14,992.99
2015,12,13,08,15,993.03
2015,12,13,08,16,993.03
2015,12,13,08,17,993.09
2015,12,13,08,18,993.09
2015,12,13,08,19,993.19
2015,12,13,08,20,993.20
2015,12,13,08,21,993.26
2015,12,13,08,22,993.26
2015,12,13,08,23,993.30
2015,12,13,08,24,993.30
2015,12,13,08,25,993.34
2015,12,13,08,26,993.43
2015,12,13,08,27,993.43
2015,12,13,08,28,993.40
2015,12,13,08,29,993.47
2015,12,13,08,30,993.50
2015,12,13,08,31,993.50
2015,12,13,08,32,993.57
2015,12,13,08,33,993.60
2015,12,13,08,34,993.60
2015,12,13,08,35,993.63
2015,12,13,08,36,993.67
2015,12,13,08,37,993.70
2015,12,13,08,38,993.70
2015,12,13,08,39,993.77
2015,12,13,08,40,993.77
2015,12,13,08,41,993.74
2015,12,13,08,42,993.77
2015,12,13,08,43,993.77
2015,12,13,08,44,993.74
2015,12,13,08,45,993.74
2015,12,13,08,46,993.80
2015,12,13,08,47,993.77
2015,12,13,08,48,993.80
2015,12,13,08,49,993.77
2015,12,13,08,50,993.80
2015,12,13,08,51,993.84
2015,12,13,08,52,993.87
2015,12,13,08,53,993.91
2015,12,13,08,54,993.94
2015,12,13,08,55,993.94
2015,12,13,08,56,994.01
2015,12,13,08,57,993.97
2015,12,13,08,58,993.97
2015,12,13,08,59,994.01
2015,12,13,09,00,994.04
2015,12,13,09,01,994.04
2015,12,13,09,02,994.04
2015,12,13,09,03,994.07
2015,12,13,09,04,994.11
2015,12,13,09,05,994.11
2015,12,13,09,06,994.14
2015,12,13,09,07,994.14
2015,12,13,09,08,994.15
2015,12,13,09,09,994.24
2015,12,13,09,10,994.28
2015,12,13,09,11,994.24
2015,12,13,09,12,994.31
2015,12,13,09,13,994.31
2015,12,13,09,14,994.31
2015,12,13,09,15,994.35
2015,12,13,09,16,994.38
2015,12,13,09,17,994.41
2015,12,13,09,18,994.41
2015,12,13,09,19,994.41
2015,12,13,09,20,994.45
2015,12,13,09,21,994.45
2015,12,13,09,22,994.48
2015,12,13,09,23,994.48
2015,12,13,09,24,994.52
2015,12,13,09,25,994.52
2015,12,13,09,26,994.55
2015,12,13,09,27,994.58
2015,12,13,09,28,994.58
2015,12,13,09,29,994.58
2015,12,13,09,30,994.62
2015,12,13,09,31,994.62
2015,12,13,09,32,994.68
2015,12,13,09,33,994.68
2015,12,13,09,34,994.68
2015,12,13,09,35,994.72
2015,12,13,09,36,994.75
2015,12,13,09,37,994.75
2015,12,13,09,38,994.79
2015,12,13,09,39,994.82
2015,12,13,09,40,994.85
2015,12,13,09,41,994.89
2015,12,13,09,42,994.92
2015,12,13,09,43,994.92
2015,12,13,09,44,994.96
2015,12,13,09,45,994.96
2015,12,13,09,46,995.02
2015,12,13,09,47,995.06
2015,12,13,09,48,995.06
2015,12,13,09,49,995.09
2015,12,13,09,50,995.12
2015,12,13,09,51,995.12
2015,12,13,09,52,995.19
2015,12,13,09,53,995.16
2015,12,13,09,54,995.19
2015,12,13,09,55,995.23
2015,12,13,09,56,995.23
2015,12,13,09,57,995.23
2015,12,13,09,58,995.29
2015,12,13,09,59,995.33
2015,12,13,10,00,995.33
2015,12,13,10,01,995.36
2015,12,13,10,02,995.36
2015,12,13,10,03,995.43
2015,12,13,10,04,995.43
2015,12,13,10,05,995.46
2015,12,13,10,06,995.46
2015,12,13,10,07,995.50
2015,12,13,10,08,995.50
2015,12,13,10,09,995.53
2015,12,13,10,10,995.53
2015,12,13,10,11,995.56
2015,12,13,10,12,995.56
2015,12,13,10,13,995.63
2015,12,13,10,14,995.63
2015,12,13,10,15,995.70
2015,12,13,10,16,995.73
2015,12,13,10,17,995.77
2015,12,13,10,18,995.84
2015,12,13,10,19,995.84
2015,12,13,10,20,995.87
2015,12,13,10,21,995.87
2015,12,13,10,22,995.94
2015,12,13,10,23,995.94
2015,12,13,10,24,995.97
2015,12,13,10,25,995.97
2015,12,13,10,26,996.01
2015,12,13,10,27,996.01
2015,12,13,10,28,996.01
2015,12,13,10,29,996.07
2015,12,13,10,30,996.07
2015,12,13,10,31,996.04
2015,12,13,10,32,996.11
2015,12,13,10,33,996.11
2015,12,13,10,34,996.11
2015,12,13,10,35,996.11
2015,12,13,10,36,996.14
2015,12,13,10,37,996.14
2015,12,13,10,38,996.17
2015,12,13,10,39,996.17
2015,12,13,10,40,996.24
2015,12,13,10,41,996.21
2015,12,13,10,42,996.24
2015,12,13,10,43,996.24
2015,12,13,10,44,996.24
2015,12,13,10,45,996.31
2015,12,13,10,46,996.31
2015,12,13,10,47,996.31
2015,12,13,10,48,996.34
2015,12,13,10,49,996.38
2015,12,13,10,50,996.41
2015,12,13,10,51,996.41
2015,12,13,10,52,996.41
2015,12,13,10,53,996.45
2015,12,13,10,54,996.45
2015,12,13,10,55,996.45
2015,12,13,10,56,996.48
2015,12,13,10,57,996.45
2015,12,13,10,58,996.48
2015,12,13,10,59,996.48
2015,12,13,11,00,996.48
2015,12,13,11,01,996.48
2015,12,13,11,02,996.48
2015,12,13,11,03,996.51
2015,12,13,11,04,996.55
2015,12,13,11,05,996.58
2015,12,13,11,06,996.61
2015,12,13,11,07,996.65
2015,12,13,11,08,996.61
2015,12,13,11,09,996.61
2015,12,13,11,10,996.65
2015,12,13,11,11,996.65
2015,12,13,11,12,996.68
2015,12,13,11,13,996.68
2015,12,13,11,14,996.68
2015,12,13,11,15,996.68
2015,12,13,11,16,996.72
2015,12,13,11,17,996.72
2015,12,13,11,18,996.72
2015,12,13,11,19,996.68
2015,12,13,11,20,996.72
2015,12,13,11,21,996.75
2015,12,13,11,22,996.78
2015,12,13,11,23,996.78
2015,12,13,11,24,996.85
2015,12,13,11,25,996.89
2015,12,13,11,26,996.89
2015,12,13,11,27,996.89
2015,12,13,11,28,996.89
2015,12,13,11,29,996.92
2015,12,13,11,30,996.89
2015,12,13,11,31,996.92
2015,12,13,11,32,996.92
2015,12,13,11,33,996.92
2015,12,13,11,34,996.95
2015,12,13,11,35,996.99
2015,12,13,11,36,996.99
2015,12,13,11,37,996.95
2015,12,13,11,38,996.92
2015,12,13,11,39,996.92
2015,12,13,11,40,996.95
2015,12,13,11,41,996.99
2015,12,13,11,42,996.95
2015,12,13,11,43,996.95
2015,12,13,11,44,996.95
2015,12,13,11,45,996.95
2015,12,13,11,46,996.92
2015,12,13,11,47,996.89
2015,12,13,11,48,996.92
2015,12,13,11,49,996.92
2015,12,13,11,50,996.92
2015,12,13,11,51,996.92
2015,12,13,11,52,996.95
2015,12,13,11,53,996.96
2015,12,13,11,54,997.05
2015,12,13,11,55,997.05
2015,12,13,11,56,997.09
2015,12,13,11,57,997.09
2015,12,13,11,58,997.09
2015,12,13,11,59,997.09
2015,12,13,12,00,997.12
2015,12,13,12,01,997.12
2015,12,13,12,02,997.12
2015,12,13,12,03,997.12
2015,12,13,12,04,997.12
2015,12,13,12,05,997.16
2015,12,13,12,06,997.16
2015,12,13,12,07,997.16
2015,12,13,12,08,997.16
2015,12,13,12,09,997.22
2015,12,13,12,10,997.22
2015,12,13,12,11,997.22
2015,12,13,12,12,997.22
2015,12,13,12,13,997.26
2015,12,13,12,14,997.22
2015,12,13,12,15,997.22
2015,12,13,12,16,997.29
2015,12,13,12,17,997.33
2015,12,13,12,18,997.36
2015,12,13,12,19,997.39
2015,12,13,12,20,997.39
2015,12,13,12,21,997.39
2015,12,13,12,22,997.43
2015,12,13,12,23,997.43
2015,12,13,12,24,997.39
2015,12,13,12,25,997.43
2015,12,13,12,26,997.39
2015,12,13,12,27,997.46
2015,12,13,12,28,997.43
2015,12,13,12,29,997.46
2015,12,13,12,30,997.50
2015,12,13,12,31,997.46
2015,12,13,12,32,997.50
2015,12,13,12,33,997.50
2015,12,13,12,34,997.50
2015,12,13,12,35,997.50
2015,12,13,12,36,997.50
2015,12,13,12,37,997.53
2015,12,13,12,38,997.53
2015,12,13,12,39,997.56
2015,12,13,12,40,997.60
2015,12,13,12,41,997.63
2015,12,13,12,42,997.70
2015,12,13,12,43,997.73
2015,12,13,12,44,997.73
2015,12,13,12,45,997.73
2015,12,13,12,46,997.77
2015,12,13,12,47,997.80
2015,12,13,12,48,997.80
2015,12,13,12,49,997.77
2015,12,13,12,50,997.77
2015,12,13,12,51,997.80
2015,12,13,12,52,997.77
2015,12,13,12,53,997.80
2015,12,13,12,54,997.77
2015,12,13,12,55,997.80
2015,12,13,12,56,997.87
2015,12,13,12,57,997.83
2015,12,13,12,58,997.87
2015,12,13,12,59,997.87
2015,12,13,13,00,997.87
2015,12,13,13,01,997.90
2015,12,13,13,02,997.94
2015,12,13,13,03,997.90
2015,12,13,13,04,997.94
2015,12,13,13,05,997.94
2015,12,13,13,06,997.97
2015,12,13,13,07,998.00
2015,12,13,13,08,998.04
2015,12,13,13,09,998.00
2015,12,13,13,10,998.04
2015,12,13,13,11,998.10
2015,12,13,13,12,998.07
2015,12,13,13,13,998.10
2015,12,13,13,14,998.14
2015,12,13,13,15,998.21
2015,12,13,13,16,998.17
2015,12,13,13,17,998.17
2015,12,13,13,18,998.17
2015,12,13,13,19,998.21
2015,12,13,13,20,998.24
2015,12,13,13,21,998.24
2015,12,13,13,22,998.24
2015,12,13,13,23,998.24
2015,12,13,13,24,998.27
2015,12,13,13,25,998.31
2015,12,13,13,26,998.34
2015,12,13,13,27,998.39
2015,12,13,13,28,998.48
2015,12,13,13,29,998.48
2015,12,13,13,30,998.51
2015,12,13,13,31,998.51
2015,12,13,13,32,998.54
2015,12,13,13,33,998.58
2015,12,13,13,34,998.61
2015,12,13,13,35,998.61
2015,12,13,13,36,998.61
2015,12,13,13,37,998.65
2015,12,13,13,38,998.65
2015,12,13,13,39,998.68
2015,12,13,13,40,998.68
2015,12,13,13,41,998.71
2015,12,13,13,42,998.68
2015,12,13,13,43,998.75
2015,12,13,13,44,998.75
2015,12,13,13,45,998.75
2015,12,13,13,46,998.75
2015,12,13,13,47,998.75
2015,12,13,13,48,998.75
2015,12,13,13,49,998.78
2015,12,13,13,50,998.75
2015,12,13,13,51,998.75
2015,12,13,13,52,998.75
2015,12,13,13,53,998.82
2015,12,13,13,54,998.82
2015,12,13,13,55,998.85
2015,12,13,13,56,998.85
2015,12,13,13,57,998.85
2015,12,13,13,58,998.85
2015,12,13,13,59,998.92
2015,12,13,14,00,998.99
2015,12,13,14,01,999.02
2015,12,13,14,02,999.02
2015,12,13,14,03,999.02
2015,12,13,14,04,999.05
2015,12,13,14,05,999.12
2015,12,13,14,06,999.12
2015,12,13,14,07,999.09
2015,12,13,14,08,999.12
2015,12,13,14,09,999.19
2015,12,13,14,10,999.26
2015,12,13,14,11,999.26
2015,12,13,14,12,999.22
2015,12,13,14,13,999.22
2015,12,13,14,14,999.26
2015,12,13,14,15,999.26
2015,12,13,14,16,999.22
2015,12,13,14,17,999.26
2015,12,13,14,18,999.29
2015,12,13,14,19,999.32
2015,12,13,14,20,999.29
2015,12,13,14,21,999.32
2015,12,13,14,22,999.36
2015,12,13,14,23,999.39
2015,12,13,14,24,999.40
2015,12,13,14,25,999.49
2015,12,13,14,26,999.49
2015,12,13,14,27,999.53
2015,12,13,14,28,999.49
2015,12,13,14,29,999.46
2015,12,13,14,30,999.49
2015,12,13,14,31,999.56
2015,12,13,14,32,999.56
2015,12,13,14,33,999.63
2015,12,13,14,34,999.59
2015,12,13,14,35,999.56
2015,12,13,14,36,999.59
2015,12,13,14,37,999.66
2015,12,13,14,38,999.70
2015,12,13,14,39,999.66
2015,12,13,14,40,999.70
2015,12,13,14,41,999.70
2015,12,13,14,42,999.76
2015,12,13,14,43,999.80
2015,12,13,14,44,999.73
2015,12,13,14,45,999.73
2015,12,13,14,46,999.76
2015,12,13,14,47,999.83
2015,12,13,14,48,999.87
2015,12,13,14,49,999.90
2015,12,13,14,50,999.90
2015,12,13,14,51,999.90
2015,12,13,14,52,999.90
2015,12,13,14,53,999.90
2015,12,13,14,54,999.90
2015,12,13,14,55,999.87
2015,12,13,14,56,999.90
2015,12,13,14,57,999.97
2015,12,13,14,58,1000.00
2015,12,13,14,59,1000.03
2015,12,13,15,00,1000.03
2015,12,13,15,01,1000.07
2015,12,13,15,02,1000.03
2015,12,13,15,03,1000.03
2015,12,13,15,04,1000.07
2015,12,13,15,05,1000.07
2015,12,13,15,06,1000.07
2015,12,13,15,07,1000.14
2015,12,13,15,08,1000.07
2015,12,13,15,09,1000.14
2015,12,13,15,10,1000.10
2015,12,13,15,11,1000.10
2015,12,13,15,12,1000.17
2015,12,13,15,13,1000.17
2015,12,13,15,14,1000.20
2015,12,13,15,15,1000.24
2015,12,13,15,16,1000.27
2015,12,13,15,17,1000.27
2015,12,13,15,18,1000.27
2015,12,13,15,19,1000.31
2015,12,13,15,20,1000.27
2015,12,13,15,21,1000.32
2015,12,13,15,22,1000.41
2015,12,13,15,23,1000.41
2015,12,13,15,24,1000.31
2015,12,13,15,25,1000.31
2015,12,13,15,26,1000.37
2015,12,13,15,27,1000.44
2015,12,13,15,28,1000.41
2015,12,13,15,29,1000.44
2015,12,13,15,30,1000.44
2015,12,13,15,31,1000.44
2015,12,13,15,32,1000.41
2015,12,13,15,33,1000.41
2015,12,13,15,34,1000.41
2015,12,13,15,35,1000.44
2015,12,13,15,36,1000.51
2015,12,13,15,37,1000.54
2015,12,13,15,38,1000.58
2015,12,13,15,39,1000.58
2015,12,13,15,40,1000.64
2015,12,13,15,41,1000.61
2015,12,13,15,42,1000.61
2015,12,13,15,43,1000.61
2015,12,13,15,44,1000.68
2015,12,13,15,45,1000.64
2015,12,13,15,46,1000.68
2015,12,13,15,47,1000.71
2015,12,13,15,48,1000.80
2015,12,13,15,49,1000.72
2015,12,13,15,50,1000.85
2015,12,13,15,51,1000.81
2015,12,13,15,52,1000.85
2015,12,13,15,53,1000.89
2015,12,13,15,54,1000.98
2015,12,13,15,55,1000.98
2015,12,13,15,56,1001.02
2015,12,13,15,57,1001.05
2015,12,13,15,58,1001.05
2015,12,13,15,59,1001.05
2015,12,13,16,00,1001.08
2015,12,13,16,01,1001.15
2015,12,13,16,02,1001.15
2015,12,13,16,03,1001.15
2015,12,13,16,04,1001.19
2015,12,13,16,05,1001.15
2015,12,13,16,06,1001.15
2015,12,13,16,07,1001.22
2015,12,13,16,08,1001.22
2015,12,13,16,09,1001.25
2015,12,13,16,10,1001.25
2015,12,13,16,11,1001.29
2015,12,13,16,12,1001.33
2015,12,13,16,13,1001.42
2015,12,13,16,14,1001.42
2015,12,13,16,15,1001.52
2015,12,13,16,16,1001.52
2015,12,13,16,17,1001.52
2015,12,13,16,18,1001.59
2015,12,13,16,19,1001.59
2015,12,13,16,20,1001.63
2015,12,13,16,21,1001.66
2015,12,13,16,22,1001.63
2015,12,13,16,23,1001.59
2015,12,13,16,24,1001.63
2015,12,13,16,25,1001.59
2015,12,13,16,26,1001.66
2015,12,13,16,27,1001.66
2015,12,13,16,28,1001.66
2015,12,13,16,29,1001.73
2015,12,13,16,30,1001.80
2015,12,13,16,31,1001.80
2015,12,13,16,32,1001.86